BEIDOU-2 G7 (C03)

Last updated on Sat Jul 05 2025 00:03:20 GMT+0000 (Coordinated Universal Time)

1 41586U 16037A 25185.62406833 -.00000341 00000+0 00000+0 0 9991 2 41586 1.8063 69.1315 0009817 10.6478 178.3019 1.00272193 3401
UTC large
Height (km)
Speed (km/s)
/
Latitude / Longitude
Inclination (degrees)
Orbital Period (minutes)
Azimuth
Elevation
Range (km)
Doppler Factor

Next 0 passes for location: London (51.5072 / 0.1276)

Sorry there are no passes over London.